ORBCOMM FM06 1 25118U 97084G 26123.16423491 .00001463 00000+0 43395-3 0 9999 2 25118 45.0138 269.4356 0000730 158.4224 11.5657 14.47450275487868 ORBCOMM FM04 1 25159U 98007C 26123.10496549 .00001163 00000+0 44458-3 0 9996 2 25159 107.9620 76.6449 0039533 43.4081 317.0161 14.35649911470124 ORBCOMM FM19 1 25415U 98046C 26123.23794903 .00001087 00000+0 39155-3 0 9996 2 25415 44.9932 97.2038 0001990 42.7655 331.8052 14.39406243450307 ORBCOMM FM20 1 25416U 98046D 26122.99505337 .00000718 00000+0 28198-3 0 9995 2 25416 44.9932 105.7863 0001605 301.7321 58.3371 14.37997385450282 ORBCOMM FM27 1 25481U 98053G 26123.20290616 .00000855 00000+0 32007-3 0 9997 2 25481 45.0043 188.9986 0001812 252.6260 107.4390 14.39054777443756 ORBCOMM FM32 1 25982U 99065C 26123.10418819 .00000765 00000+0 30269-3 0 9991 2 25982 45.0170 26.6226 0004869 198.0269 162.0407 14.37066636380600 ORBCOMM FM109 1 40086U 14040A 26122.96422287 .00000444 00000+0 13031-3 0 9992 2 40086 47.0040 305.2897 0001363 358.0028 2.0852 14.58796991627740 ORBCOMM FM114 1 41179U 15081A 26122.98179309 .00000463 00000+0 13429-3 0 9990 2 41179 47.0041 215.7212 0002284 328.1484 31.9263 14.58808185551155 ORBCOMM FM110 1 41182U 15081D 26122.97053931 .00000785 00000+0 20245-3 0 9996 2 41182 47.0014 215.2282 0003838 233.6070 126.4462 14.58810090551023 ORBCOMM FM118 1 41183U 15081E 26122.66273615 .00000786 00000+0 20262-3 0 9996 2 41183 47.0035 217.0092 0003514 200.0511 160.0237 14.58830882551086 ORBCOMM FM112 1 41184U 15081F 26123.00873353 .00000502 00000+0 14319-3 0 9993 2 41184 46.9974 123.8545 0002262 357.5933 2.4941 14.58555235552357 ORBCOMM FM113 1 41185U 15081G 26123.05415469 .00000399 00000+0 12078-3 0 9993 2 41185 46.9994 124.0127 0001941 329.5313 30.5459 14.58807459552346 ORBCOMM FM108 1 41187U 15081J 26123.15370975 .00000782 00000+0 20188-3 0 9995 2 41187 47.0062 35.1015 0002927 340.6767 19.4008 14.58803923553503 ORBCOMM FM117 1 41188U 15081K 26123.11914410 .00000744 00000+0 19384-3 0 9994 2 41188 47.0028 33.9126 0003309 347.8442 12.2364 14.58802278553541 ORBCOMM FM116 1 41189U 15081L 26123.03144389 .00000320 00000+0 10401-3 0 9997 2 41189 47.0010 124.1166 0002371 243.1062 116.9581 14.58816989552348